GFSFLT2_925_spd_357.txt.gz
Wind_Speed
13 15 12 10 9 8 8 8 10 9 10 10 9 9 9 8 8 8 8 8 8 8 9 10 11 11 12
15 16 13 11 10 9 9 9 8 9 10 9 8 6 6 7 7 7 7 7 7 8 9 10 10 12 12
15 18 16 13 12 10 8 7 7 5 3 2 3 4 5 6 7 7 7 8 8 8 8 9 10 12 12
19 19 16 14 12 10 8 6 5 4 1 2 4 5 6 7 6 6 7 8 8 8 8 8 8 11 12
16 13 12 14 10 10 8 6 5 3 1 4 5 6 6 6 6 7 7 7 8 8 8 9 11 10 12
14 15 14 12 12 10 8 4 3 3 4 6 4 5 5 8 9 7 6 6 6 7 8 9 10 12 12
19 18 17 15 13 10 7 5 3 3 6 3 5 5 7 11 8 4 4 5 8 10 11 12 13 14 15
12 14 12 13 10 8 6 3 1 3 4 3 5 5 11 10 1 3 2 6 10 11 13 14 15 16 16
12 12 11 9 7 7 4 2 1 2 4 4 2 8 10 2 3 6 8 11 14 15 16 17 16 17 16
14 13 11 8 6 4 4 4 3 1 2 2 3 6 6 5 4 5 14 18 18 19 20 17 16 13 14
12 11 9 6 5 5 5 5 5 4 3 4 3 6 5 8 11 13 15 17 19 21 18 12 11 14 18
11 10 8 6 5 5 4 4 4 5 7 9 8 9 9 10 12 11 15 21 17 16 12 16 17 16 16
12 9 7 6 7 6 5 6 7 9 11 12 14 14 13 12 14 15 16 15 17 8 16 14 15 16 16
9 9 9 8 8 8 8 9 12 12 10 11 11 13 16 18 16 19 18 11 17 18 15 16 15 15 16
11 11 11 11 13 12 11 11 11 13 15 13 13 14 15 18 18 20 20 17 16 15 16 17 19 19 17
14 14 15 16 16 15 13 14 14 14 16 17 16 15 17 17 15 17 14 14 16 15 16 20 21 20 18
18 18 18 18 18 18 17 16 17 17 17 17 16 12 9 7 10 16 19 15 15 20 18 18 23 23 21

GFSFLT2_925_spd_363.txt.gz
Wind_Speed
13 17 16 14 16 12 11 7 10 9 10 10 9 7 6 5 5 5 6 6 6 7 7 8 8 10 11
18 19 17 15 15 14 13 9 8 10 9 7 6 4 3 3 3 3 4 6 6 6 6 7 7 9 10
17 19 19 18 17 14 14 12 11 11 5 3 2 1 1 2 3 3 3 4 5 6 5 5 7 8 9
22 21 20 19 17 18 15 13 11 8 8 5 2 2 3 3 4 4 4 4 5 5 5 5 6 8 9
18 19 18 22 21 17 15 14 9 7 6 4 2 1 4 3 4 5 5 3 3 2 4 6 7 9 10
16 18 18 20 19 20 17 16 5 9 7 6 5 4 5 4 8 7 3 3 1 3 5 6 8 10 13
16 19 19 21 20 18 16 14 6 7 8 5 6 3 6 5 9 4 5 5 4 5 7 9 12 15 15
17 16 18 18 18 16 14 12 9 5 6 2 5 3 7 6 10 6 8 8 8 9 12 13 16 17 16
16 15 15 17 18 18 16 12 7 6 3 4 3 5 8 8 7 6 10 11 11 14 14 15 16 16 16
16 16 16 14 12 11 12 10 6 5 7 4 2 3 3 4 6 6 6 10 13 14 14 15 13 13 11
18 15 12 11 10 9 9 9 7 4 7 5 4 2 3 5 8 10 12 14 15 16 15 12 11 11 18
16 16 13 10 8 7 7 8 9 8 8 8 5 6 6 10 9 8 13 16 17 14 14 14 13 15 13
15 13 12 10 9 8 7 7 7 7 8 8 9 10 11 11 11 17 16 12 20 15 10 14 19 18 19
15 13 13 12 10 9 8 7 7 7 9 10 10 12 15 16 17 22 21 12 15 20 20 19 20 19 17
16 15 14 12 11 11 10 10 11 8 9 11 11 12 15 17 21 24 24 21 19 19 18 20 20 21 20
16 16 14 14 13 13 13 15 14 13 13 12 12 13 13 16 16 20 19 18 17 16 18 21 23 24 22
17 18 16 15 13 15 17 16 17 17 18 16 14 14 12 6 15 14 20 19 20 20 18 21 25 25 24

GFSFLT2_925_spd_366.txt.gz
Wind_Speed
18 21 23 23 19 14 14 13 13 11 11 11 9 7 5 4 4 5 5 5 5 5 5 5 6 7 8
20 27 24 23 21 19 14 11 12 12 12 10 8 6 4 3 3 3 3 3 3 3 2 3 4 6 7
17 26 25 23 22 21 18 15 14 14 11 8 7 5 4 3 2 2 1 0 1 2 3 2 4 5 6
20 26 25 23 23 24 21 19 16 13 9 7 6 5 4 4 4 3 2 1 1 1 1 2 4 5 6
23 25 24 25 26 23 23 19 13 13 11 10 7 6 5 4 4 4 4 3 2 1 2 4 5 6 8
23 24 21 24 23 22 21 19 7 14 13 11 8 8 7 7 7 8 5 4 5 3 4 5 7 9 11
29 29 26 25 28 23 23 23 8 9 15 11 11 9 8 8 9 8 5 7 6 5 6 8 11 13 15
17 19 16 19 27 27 24 19 10 11 13 8 11 8 8 9 10 8 9 8 7 8 10 12 13 14 15
14 13 15 20 23 24 23 21 8 9 11 8 8 9 11 12 10 7 8 9 9 10 13 13 14 14 15
19 19 19 20 20 20 22 23 10 7 11 8 9 6 3 5 7 8 8 7 9 12 12 13 14 15 16
25 22 21 21 20 20 20 20 17 8 10 10 10 7 4 3 8 10 13 15 16 17 18 15 12 11 16
26 24 22 19 18 16 15 14 13 12 12 11 6 10 8 5 8 5 11 15 17 15 15 17 13 12 15
26 24 21 18 15 13 11 11 10 9 10 10 10 10 11 10 9 15 14 11 20 9 9 16 19 20 21
24 20 17 16 16 15 13 11 10 10 10 9 10 12 13 14 16 21 19 14 16 23 21 20 19 19 19
20 21 20 20 18 15 12 12 11 9 10 9 9 10 12 15 18 20 22 22 20 19 19 22 22 22 24
22 22 22 21 18 16 15 15 15 14 13 12 11 12 13 16 17 18 18 20 18 17 17 23 27 26 24
21 21 20 19 17 18 18 17 17 17 17 15 15 16 14 4 11 12 20 21 20 23 25 27 29 29 26

GFSFLT2_925_spd_372.txt.gz
Wind_Speed
25 23 32 31 28 24 22 20 22 22 20 16 14 12 10 9 8 7 6 5 4 3 2 1 1 3 4
27 29 28 33 29 26 23 22 22 21 15 15 14 12 11 9 8 8 7 6 5 4 3 2 1 2 3
19 29 31 32 30 26 24 23 22 19 16 14 13 12 11 11 10 9 8 7 6 5 4 4 3 2 4
22 27 30 31 31 31 26 24 24 21 20 18 13 11 11 11 11 10 9 8 7 7 6 8 9 7 5
22 19 26 31 38 32 30 29 23 26 24 20 19 16 14 12 12 11 10 9 8 7 9 9 8 7 7
26 25 28 32 32 35 27 26 13 29 27 23 20 19 16 15 13 11 10 10 10 11 11 10 8 8 9
36 32 29 39 37 34 30 29 19 16 30 25 22 21 18 16 14 12 11 9 12 11 10 9 8 10 11
38 37 34 37 40 39 33 28 19 16 25 15 22 22 19 16 16 14 11 9 14 12 10 10 11 12 12
28 25 28 26 34 33 31 27 14 14 23 13 15 18 16 16 18 16 14 11 17 14 12 12 12 12 14
25 23 23 25 30 35 36 29 18 10 23 21 14 14 6 19 19 18 16 13 16 14 13 12 13 15 17
30 28 28 29 31 35 32 34 28 10 20 27 18 19 11 5 11 15 15 16 17 17 18 19 18 12 15
34 32 35 33 32 32 28 28 27 23 16 23 11 23 16 9 5 10 14 15 17 16 17 15 16 10 12
30 28 32 34 31 27 24 25 25 18 17 21 21 14 14 10 5 8 7 9 11 15 12 8 17 17 16
29 32 33 32 33 33 30 25 22 19 18 16 15 14 14 13 13 14 14 9 4 8 16 16 14 12 12
34 33 35 35 33 31 29 26 23 23 20 17 15 13 12 12 13 14 15 16 14 14 12 13 13 13 15
30 32 32 32 32 28 26 27 23 20 22 20 17 13 9 10 14 15 16 15 10 10 11 13 18 18 19
31 31 31 30 28 28 26 24 21 19 18 19 19 17 10 3 5 11 14 12 10 12 14 16 20 23 23

GFSFLT2_925_spd_375.txt.gz
Wind_Speed
28 27 32 32 30 27 25 23 21 19 22 22 19 15 15 13 11 10 8 7 6 5 3 2 1 1 3
26 31 27 34 33 30 28 25 24 23 22 23 20 17 15 13 12 11 10 10 9 8 7 5 4 2 3
20 28 32 31 32 30 28 27 26 24 23 22 20 17 16 15 14 14 12 12 10 9 8 7 7 5 2
22 25 29 29 35 35 30 28 27 25 23 22 19 16 15 15 15 15 13 12 11 10 9 10 11 9 7
16 15 24 24 38 33 28 31 28 30 28 26 24 22 19 16 17 16 14 14 12 11 10 10 10 9 8
27 21 29 28 30 32 25 23 12 32 32 31 29 27 23 21 19 16 15 13 12 10 11 11 10 9 8
36 32 29 41 39 34 32 31 22 19 32 24 31 29 25 22 20 17 16 14 12 12 13 11 9 8 9
50 48 47 38 40 42 34 28 22 20 30 17 29 30 26 23 20 19 17 15 12 14 12 10 9 10 11
48 43 41 38 35 36 33 30 17 19 31 17 20 25 23 23 22 20 17 15 12 15 12 11 11 10 13
38 34 32 31 33 40 39 33 23 12 29 23 19 18 7 23 23 21 19 17 13 16 15 13 10 13 17
34 34 31 31 34 37 39 39 32 13 25 34 24 23 12 6 20 23 23 21 19 20 20 20 19 17 17
32 33 35 36 38 39 37 35 33 28 24 38 17 28 24 10 7 16 19 20 20 19 19 19 19 17 16
33 32 37 37 35 34 34 33 30 25 23 31 26 26 26 14 11 12 14 17 17 16 16 17 15 13 16
32 32 34 36 35 37 31 33 31 25 23 22 24 18 24 17 15 14 14 9 11 11 11 12 14 13 12
33 32 34 33 31 35 35 34 26 30 26 21 20 19 16 17 16 15 15 15 13 13 14 14 13 11 11
28 32 32 31 31 31 33 28 26 26 30 27 24 19 13 12 14 13 13 13 12 12 12 12 14 10 12
30 29 30 29 32 31 30 29 24 26 28 28 25 21 6 3 5 14 16 12 9 11 11 12 13 16 17

GFSFLT2_925_spd_378.txt.gz
Wind_Speed
38 36 32 38 35 33 31 29 27 26 24 26 25 23 21 20 18 15 13 12 11 10 9 7 5 4 2
25 32 31 37 38 35 34 32 30 29 27 27 27 28 24 21 19 18 16 15 13 12 11 9 8 6 4
23 28 36 34 37 36 35 32 32 31 29 28 27 26 25 23 22 21 19 18 16 14 13 12 9 7 5
22 25 32 31 37 38 35 35 34 32 32 30 27 26 27 23 22 22 21 18 16 14 12 12 11 11 9
22 18 23 23 37 36 31 35 37 36 34 31 30 29 25 23 24 24 21 19 17 15 13 12 11 10 8
30 25 30 31 33 33 28 19 11 38 38 34 35 33 30 29 27 26 21 19 18 17 14 14 11 9 8
38 35 29 39 36 31 32 33 29 27 39 28 38 36 34 30 28 25 21 20 18 17 15 15 12 11 9
42 46 50 44 49 51 43 30 21 21 33 18 35 30 35 32 29 26 23 20 19 16 16 16 13 11 10
39 49 50 50 47 38 32 30 14 20 37 23 23 25 29 34 32 27 23 21 19 16 19 17 13 11 14
49 49 47 46 47 47 45 36 24 12 35 29 25 24 9 31 33 29 25 23 21 18 19 18 15 18 19
40 40 40 40 43 44 44 43 36 19 31 39 26 27 13 8 30 35 31 28 26 21 19 22 21 21 19
34 34 36 38 43 47 44 42 36 29 29 44 20 29 25 11 9 27 31 31 30 26 23 24 22 20 19
30 32 39 38 34 34 36 39 34 32 26 40 36 33 30 20 15 20 27 27 28 27 25 24 22 20 18
34 31 30 32 36 36 30 33 29 25 26 33 36 29 28 25 27 24 23 15 28 24 21 19 17 15 14
30 32 35 36 35 42 34 33 26 30 29 28 29 23 25 29 19 26 26 19 17 20 19 17 15 14 13
31 33 34 32 29 30 33 34 27 26 29 32 32 25 19 14 15 22 21 20 18 18 17 15 13 11 10
32 31 31 30 32 30 32 28 26 27 28 34 32 26 10 3 11 17 19 18 17 17 15 14 11 8 8